• In Kazakhstan
  • List of Countries
  • For 7 days
  • Water Temperature
  • Satellite Maps
  • Weather Map
  • News
  • Weather Widgets
  • user-avatar
    Login

    Hourly Weather Bregenz

    Today, 22 October, Sunday

    Time Temperature Precipitation Wind Pressure Humidity
    00:00 +4°C° 1.2 mm 3 mps 647 mmHg 93%
    01:00 +4°C° 1.2 mm 3 mps 647 mmHg 95%
    02:00 +3°C° 0.9 mm 3 mps 646 mmHg 95%
    03:00 +3°C° 0.9 mm 3 mps 646 mmHg 95%
    04:00 +2°C° 0.9 mm 3 mps 646 mmHg 95%
    05:00 +2°C° 0.9 mm 3 mps 646 mmHg 95%
    06:00 +2°C° 0.9 mm 3 mps 645 mmHg 95%
    07:00 +2°C° 0.9 mm 2 mps 645 mmHg 95%
    08:00 +2°C° 0.8 mm 3 mps 645 mmHg 93%
    09:00 +2°C° 0.8 mm 3 mps 645 mmHg 91%
    10:00 +2°C° 0.8 mm 3 mps 645 mmHg 90%
    11:00 +1°C° 0.6 mm 4 mps 645 mmHg 88%
    12:00 +1°C° 0.6 mm 4 mps 645 mmHg 86%
    13:00 +1°C° 0.6 mm 4 mps 645 mmHg 85%
    14:00 +1°C° 0.5 mm 4 mps 645 mmHg 85%
    15:00 +1°C° 0.5 mm 4 mps 645 mmHg 86%
    16:00 +1°C° 0.5 mm 4 mps 645 mmHg 87%
    17:00 0°C° 0.3 mm 4 mps 645 mmHg 89%
    18:00 0°C° 0.3 mm 3 mps 645 mmHg 92%
    19:00 0°C° 0.3 mm 3 mps 645 mmHg 94%
    20:00 0°C° 0.4 mm 3 mps 646 mmHg 94%
    21:00 0°C° 0.4 mm 3 mps 646 mmHg 95%
    22:00 -1°C° 0.4 mm 3 mps 646 mmHg 95%
    23:00 -1°C° 0.5 mm 3 mps 646 mmHg 95%

    Tomorrow, 23 October, Monday

    Time Temperature Precipitation Wind Pressure Humidity
    00:00 -1°C° 0.5 mm 3 mps 646 mmHg 95%
    01:00 -1°C° 0.5 mm 3 mps 646 mmHg 95%
    02:00 -1°C° 0.6 mm 3 mps 646 mmHg 95%
    03:00 -1°C° 0.6 mm 3 mps 646 mmHg 95%
    04:00 -1°C° 0.6 mm 2 mps 646 mmHg 95%
    05:00 -1°C° 0.7 mm 3 mps 646 mmHg 95%
    06:00 -1°C° 0.7 mm 3 mps 646 mmHg 95%
    07:00 -1°C° 0.7 mm 3 mps 646 mmHg 96%
    08:00 0°C° 0.7 mm 3 mps 647 mmHg 95%
    09:00 0°C° 0.7 mm 3 mps 647 mmHg 95%
    10:00 0°C° 0.7 mm 3 mps 648 mmHg 94%
    11:00 +1°C° 0.7 mm 3 mps 648 mmHg 94%
    12:00 +1°C° 0.7 mm 3 mps 648 mmHg 93%
    13:00 +1°C° 0.7 mm 3 mps 648 mmHg 93%
    14:00 +2°C° 0.5 mm 3 mps 648 mmHg 93%
    15:00 +2°C° 0.5 mm 3 mps 648 mmHg 93%
    16:00 +2°C° 0.5 mm 3 mps 648 mmHg 93%
    17:00 +1°C° 0.4 mm 3 mps 648 mmHg 94%
    18:00 +1°C° 0.4 mm 3 mps 649 mmHg 95%
    19:00 +1°C° 0.4 mm 3 mps 649 mmHg 96%
    20:00 +1°C° 0.8 mm 2 mps 649 mmHg 96%
    21:00 +1°C° 0.8 mm 2 mps 649 mmHg 96%
    22:00 +1°C° 0.8 mm 2 mps 649 mmHg 96%
    23:00 +1°C° 0.7 mm 2 mps 649 mmHg 96%

    Day after tomorrow, 24 October, Tuesday

    Time Temperature Precipitation Wind Pressure Humidity
    00:00 +1°C° 0.7 mm 2 mps 649 mmHg 96%
    01:00 +1°C° 0.7 mm 2 mps 649 mmHg 96%
    02:00 +1°C° 0.7 mm 2 mps 649 mmHg 96%
    03:00 +1°C° 0.7 mm 2 mps 649 mmHg 96%
    04:00 +2°C° 0.7 mm 2 mps 649 mmHg 95%
    05:00 +2°C° 0.5 mm 2 mps 649 mmHg 95%
    06:00 +2°C° 0.5 mm 2 mps 650 mmHg 95%
    07:00 +2°C° 0.5 mm 2 mps 650 mmHg 95%
    08:00 +3°C° 0.1 mm 2 mps 650 mmHg 94%
    09:00 +5°C° 0.1 mm 1 mps 650 mmHg 94%
    10:00 +6°C° 0.1 mm 1 mps 651 mmHg 93%
    11:00 +7°C° 0 mm 1 mps 651 mmHg 91%
    12:00 +8°C° 0 mm 1 mps 651 mmHg 88%
    13:00 +9°C° 0 mm 1 mps 651 mmHg 86%
    14:00 +9°C° 0 mm 1 mps 651 mmHg 87%
    15:00 +8°C° 0 mm 1 mps 651 mmHg 88%
    16:00 +8°C° 0 mm 1 mps 651 mmHg 89%
    17:00 +7°C° 0 mm 1 mps 651 mmHg 91%
    18:00 +6°C° 0 mm 1 mps 651 mmHg 93%
    19:00 +3°C° 0 mm 2 mps 651 mmHg 94%
    20:00 +3°C° 0 mm 2 mps 651 mmHg 93%
    21:00 +3°C° 0 mm 2 mps 651 mmHg 92%
    22:00 +2°C° 0 mm 2 mps 651 mmHg 90%
    23:00 +2°C° 0 mm 2 mps 651 mmHg 89%

    25 October, Wednesday

    Time Temperature Precipitation Wind Pressure Humidity
    00:00 +2°C° 0 mm 2 mps 651 mmHg 87%
    01:00 +2°C° 0 mm 2 mps 651 mmHg 86%
    02:00 +2°C° 0 mm 2 mps 651 mmHg 85%
    03:00 +2°C° 0 mm 2 mps 650 mmHg 84%
    04:00 +3°C° 0 mm 1 mps 650 mmHg 82%
    05:00 +2°C° 0 mm 2 mps 650 mmHg 82%
    06:00 +2°C° 0 mm 2 mps 650 mmHg 81%
    07:00 +2°C° 0 mm 2 mps 650 mmHg 80%
    08:00 +5°C° 0 mm 1 mps 651 mmHg 80%
    09:00 +7°C° 0 mm 1 mps 651 mmHg 81%
    10:00 +9°C° 0 mm 1 mps 652 mmHg 81%
    11:00 +10°C° 0 mm 1 mps 652 mmHg 78%
    12:00 +12°C° 0 mm 1 mps 653 mmHg 76%
    13:00 +13°C° 0 mm 1 mps 653 mmHg 74%
    14:00 +11°C° 0 mm 0 mps 653 mmHg 77%
    15:00 +11°C° 0 mm 0 mps 653 mmHg 80%
    16:00 +10°C° 0 mm 0 mps 652 mmHg 83%
    17:00 +9°C° 0 mm 1 mps 652 mmHg 83%
    18:00 +8°C° 0 mm 1 mps 652 mmHg 83%
    19:00 +5°C° 0 mm 2 mps 652 mmHg 83%
    20:00 +5°C° 0 mm 2 mps 652 mmHg 82%
    21:00 +5°C° 0 mm 2 mps 652 mmHg 80%
    22:00 +5°C° 0 mm 2 mps 652 mmHg 78%
    23:00 +4°C° 0 mm 2 mps 652 mmHg 77%

    26 October, Thursday

    Time Temperature Precipitation Wind Pressure Humidity
    00:00 +4°C° 0 mm 2 mps 652 mmHg 76%
    01:00 +4°C° 0 mm 2 mps 652 mmHg 75%
    02:00 +4°C° 0 mm 2 mps 652 mmHg 74%
    03:00 +4°C° 0 mm 2 mps 652 mmHg 74%
    04:00 +4°C° 0 mm 2 mps 652 mmHg 73%
    05:00 +4°C° 0 mm 2 mps 652 mmHg 73%
    06:00 +4°C° 0 mm 2 mps 652 mmHg 73%
    07:00 +4°C° 0 mm 2 mps 652 mmHg 73%
    08:00 +7°C° 0 mm 1 mps 653 mmHg 73%
    09:00 +9°C° 0 mm 1 mps 653 mmHg 73%
    10:00 +11°C° 0 mm 1 mps 654 mmHg 73%
    11:00 +12°C° 0 mm 1 mps 654 mmHg 70%
    12:00 +13°C° 0 mm 1 mps 654 mmHg 68%
    13:00 +15°C° 0 mm 1 mps 654 mmHg 65%
    14:00 +13°C° 0 mm 0 mps 654 mmHg 69%
    15:00 +12°C° 0 mm 0 mps 653 mmHg 73%
    16:00 +12°C° 0 mm 0 mps 653 mmHg 77%
    17:00 +11°C° 0 mm 1 mps 653 mmHg 78%
    18:00 +9°C° 0 mm 1 mps 652 mmHg 78%
    19:00 +7°C° 0 mm 2 mps 652 mmHg 79%
    20:00 +6°C° 0 mm 2 mps 652 mmHg 78%
    21:00 +6°C° 0 mm 2 mps 652 mmHg 76%
    22:00 +6°C° 0 mm 2 mps 652 mmHg 75%
    23:00 +6°C° 0 mm 2 mps 652 mmHg 74%

    27 October, Friday

    Time Temperature Precipitation Wind Pressure Humidity
    00:00 +6°C° 0 mm 2 mps 652 mmHg 73%
    01:00 +6°C° 0 mm 2 mps 651 mmHg 73%
    02:00 +6°C° 0 mm 2 mps 651 mmHg 73%
    03:00 +5°C° 0 mm 2 mps 651 mmHg 73%
    04:00 +5°C° 0 mm 2 mps 651 mmHg 73%
    05:00 +5°C° 0 mm 2 mps 651 mmHg 74%
    06:00 +5°C° 0 mm 2 mps 650 mmHg 75%
    07:00 +5°C° 0 mm 2 mps 650 mmHg 75%
    08:00 +7°C° 0 mm 2 mps 651 mmHg 74%
    09:00 +9°C° 0 mm 2 mps 651 mmHg 73%
    10:00 +10°C° 0 mm 2 mps 652 mmHg 72%
    11:00 +12°C° 0 mm 2 mps 651 mmHg 69%
    12:00 +12°C° 0 mm 3 mps 651 mmHg 67%
    13:00 +13°C° 0 mm 3 mps 651 mmHg 65%
    14:00 +12°C° 0 mm 3 mps 651 mmHg 69%
    15:00 +11°C° 0 mm 3 mps 650 mmHg 73%
    16:00 +10°C° 0 mm 2 mps 650 mmHg 77%
    17:00 +9°C° 0 mm 3 mps 649 mmHg 81%
    18:00 +8°C° 0 mm 3 mps 649 mmHg 86%
    19:00 +7°C° 0 mm 3 mps 649 mmHg 90%
    20:00 +7°C° 0.3 mm 3 mps 649 mmHg 92%
    21:00 +7°C° 0.3 mm 3 mps 649 mmHg 93%
    22:00 +7°C° 0.3 mm 3 mps 649 mmHg 95%
    23:00 +7°C° 0.7 mm 3 mps 649 mmHg 95%
    Show more